sat.trackr.live / text

‹ back to catalog

STARLINK-35967

NORAD 66634 · 2025-271T

PAYLOAD ACTIVE UNKNOWN

§ Identity

Operator
Country
US
Launch date
2025-11-23
Launch site
AFWTR
Launch vehicle
Mass (kg)
RCS (m²)

Purposes: comms

External: N2YO · Heavens-Above · Gunter

§ Orbital elements

Epoch: 2026-05-25T00:01:09.012864Z

Period
93.85 min
Inclination
53.1593°
Eccentricity
0.0001281
Mean motion
15.34401265 rev/d
Perigee alt
461.8 km
Apogee alt
463.6 km
Semi-major
6,840.8 km
B*
9.1683e-4
RAAN
143.8251°
Arg perigee
61.2950°
Mean anomaly
298.8181°
Rev number
2,922

§ Raw data

STARLINK-359671 66634U 25271T   26145.00079876  .00030728  00000+0  91683-3 0  99962 66634  53.1593 143.8251 0001281  61.2950 298.8181 15.34401265 29225

JSON: /api/v1/satellites/66634 · /tle

For live sub-satellite position, see the globe view (requires WebGL).

§ Visibility from observer

Set your observer location to see the next 7 days of passes ≥ 10°. The values pass through the URL so the page stays shareable.

No JS? Fill the form by hand. The geolocation button needs JavaScript.